Scilly, United Kingdom

4:53 AM GMT on March 25, 2017 (GMT +0000)
Scilly

Weather History for 03803 - October, 2012

Change the Weather History Date:

Wednesday, October 17, 2012

  Actual Average Record
Temperature  
Mean Temperature 54 °F -  
Max Temperature 58 °F 53 °F - ()
Min Temperature 51 °F 51 °F - ()
Degree Days  
Heating Degree Days 10    
Growing Degree Days 4 (Base 50)    
Moisture  
Dew Point 48 °F    
Average Humidity 69    
Maximum Humidity 87    
Minimum Humidity 57    
Precipitation  
Precipitation 0.04 in - - ()
Sea Level Pressure  
Sea Level Pressure 29.25 in    
Wind  
Wind Speed 32 mph ()    
Max Wind Speed 41 mph    
Max Gust Speed 55 mph    
Visibility 6.9 miles    
Events Rain    
T = Trace of Precipitation, MM = Missing Value Source: Averaged Metar Reports

Daily Weather History Graph

Daily Weather History Graph

Search for Another Location

Airport or City:

Trip Planner

Search our weather history database for the weather conditions in past years. The results will help you decide how hot, cold, wet, or windy it might be!

Date:

Astronomy

Oct. 17, 2012 Rise Set
Actual Time 7:50 AM BST 6:29 PM BST
Civil Twilight 7:17 AM BST 7:02 PM BST
Nautical Twilight 6:40 AM BST 7:39 PM BST
Astronomical Twilight 6:03 AM BST 8:16 PM BST
Moon 10:25 AM BST (10/17) 7:34 PM BST (10/17)
Length of Visible Light 11h 44m
Length of Day
10h 38m
Waxing Crescent, 6% of the Moon is Illuminated
Oct 17
Waxing Crescent
Oct 22
First Quarter
Oct 29
Full
Nov 7
Last Quarter
Nov 13
New

Hourly Weather History & Observations

Time (BST) Temp. Dew Point Humidity Pressure Visibility Wind Dir Wind Speed Gust Speed Precip Events Conditions
12:50 AM 53 °F 50 °F 87% 29.23 in 14 mi SW 28.8 mph - - Rain Rain
3:50 AM 55 °F 47 °F 68% 29.23 in 9 mi SW 32.2 mph - -   Scattered Clouds
6:50 AM 56 °F 47 °F 63% 29.23 in 8 mi SSW 35.7 mph - -   Mostly Cloudy
7:20 AM 55.4 °F 46.4 °F 72% 29.21 in 6.2 mi SSW 39.1 mph 50.6 mph N/A   Partly Cloudy
7:50 AM 55.4 °F 48.2 °F 77% 29.24 in 6.2 mi SW 36.8 mph 51.8 mph N/A Rain Light Rain Showers
8:20 AM 57.2 °F 46.4 °F 67% 29.24 in 6.2 mi SSW 35.7 mph 47.2 mph N/A   Scattered Clouds
8:50 AM 55.4 °F 46.4 °F 72% 29.24 in 6.2 mi SSW 36.8 mph 52.9 mph N/A   Scattered Clouds
9:20 AM 55.4 °F 46.4 °F 72% 29.24 in 6.2 mi SSW 35.7 mph 49.5 mph N/A   Partly Cloudy
9:50 AM 56 °F 47 °F 62% 29.26 in 9 mi SSW 36.8 mph - -   Mostly Cloudy
9:50 AM 57.2 °F 46.4 °F 67% 29.24 in 6.2 mi SSW 38.0 mph 51.8 mph N/A   Partly Cloudy
10:20 AM 57.2 °F 44.6 °F 63% 29.27 in 6.2 mi SSW 41.4 mph 55.2 mph N/A   Partly Cloudy
10:50 AM 57.2 °F 46.4 °F 67% 29.27 in 6.2 mi SSW 34.5 mph 55.2 mph N/A Rain Rain Showers
11:20 AM 57.2 °F 46.4 °F 67% 29.27 in 6.2 mi SSW 36.8 mph 48.3 mph N/A   Partly Cloudy
11:50 AM 57.2 °F 48.2 °F 72% 29.27 in 6.2 mi SSW 38.0 mph 50.6 mph N/A   Partly Cloudy
12:20 PM 59.0 °F 46.4 °F 63% 29.27 in 6.2 mi SSW 36.8 mph 54.1 mph N/A   Partly Cloudy
12:50 PM 58 °F 47 °F 57% 29.28 in 7 mi SSW 36.8 mph - -   Partly Cloudy
12:50 PM 59.0 °F 46.4 °F 63% 29.27 in 6.2 mi SSW 36.8 mph 52.9 mph N/A   Partly Cloudy
1:20 PM 59.0 °F 48.2 °F 67% 29.27 in 6.2 mi SSW 34.5 mph 48.3 mph N/A   Partly Cloudy
1:50 PM 59.0 °F 48.2 °F 67% 29.27 in 6.2 mi SSW 36.8 mph 48.3 mph N/A   Partly Cloudy
2:20 PM 59.0 °F 48.2 °F 67% 29.27 in 6.2 mi SSW 33.4 mph - N/A   Partly Cloudy
2:50 PM 57.2 °F 48.2 °F 72% 29.27 in 6.2 mi SSW 39.1 mph - N/A   Partly Cloudy
3:20 PM 57.2 °F 50.0 °F 77% 29.27 in 6.2 mi SSW 36.8 mph - N/A   Partly Cloudy
3:50 PM 57 °F 49 °F 66% 29.26 in 7 mi SSW 39.1 mph - -   Mostly Cloudy
3:50 PM 57.2 °F 50.0 °F 77% 29.27 in 6.2 mi SW 36.8 mph 48.3 mph N/A   Partly Cloudy
4:20 PM 57.2 °F 50.0 °F 77% 29.24 in 6.2 mi SSW 39.1 mph - N/A   Partly Cloudy
4:50 PM 57.2 °F 48.2 °F 72% 29.24 in 6.2 mi SSW 32.2 mph 43.7 mph N/A   Partly Cloudy
5:20 PM 57.2 °F 48.2 °F 72% 29.24 in 6.2 mi SSW 40.3 mph - N/A   Partly Cloudy
6:50 PM 56 °F 47 °F 65% 29.24 in 7 mi SSW 35.7 mph - -   Mostly Cloudy
9:50 PM 55 °F 48 °F 69% 29.27 in 10 mi SW 29.9 mph - -   Mostly Cloudy